Погода в Хасане

Россия / Приморский край     42°25′47″N   130°38′35″E
темп.,
°C
ветер,
м/с
пор.,
м/с
влажн.,
%
обл.,
%
осадки,
мм/ч
давл.,
гПа
погр.,
м
21 июня, пн
пн2101:00+13ююв6790100 1.1 1006568
04:00+13ююв4588100 1.6 1006463
07:00+13ю3486100 0.1 1007439
10:00+14ююз2386100 0.2 1009412
13:00+14ююз3484100 0.0 1009426
16:00+15ююз447884 0.1 1008423
19:00+15ю558390 0.0 1009366
22:00+13ююз458972 0.0 1010230
22 июня, вт
вт2201:00+13ююз24897 0.0 1010156
04:00+12юз12885 0.0 101088
07:00+12сз11895 0.0 101273
10:00+15ююз127910 0.0 1012274
13:00+15ю54826 0.0 1012422
16:00+16ю55815 0.0 1011328
19:00+16ююз56810 0.0 1011189
22:00+14ююз23860 0.0 101261
23 июня, ср
ср2301:00+13з12860 0.0 101250
04:00+13сз22880 0.0 101265
07:00+13сз22870 0.0 101382
10:00+16зюз01770 0.0 1012132
13:00+17ююв55780 0.0 1012376
16:00+17ю67790 0.0 1011257
19:00+17ююз56800 0.0 1010136
22:00+15ююз23870 0.0 101139
24 июня, чт
чт2401:00+14з11870 0.0 101118
04:00+14з11870 0.0 101124
07:00+14зсз11850 0.0 101149
10:00+17ю11775 0.0 1011117
13:00+18ю558113 0.0 1010281
16:00+18ю577743 0.0 1009199
19:00+17ю5783100 0.0 1008127
22:00+15ююз349394 0.0 100952
25 июня, пт
пт2501:00+15юз1193100 0.0 100913
04:00+15зсз0193100 0.0 101014
07:00+15ссз1192100 0.0 101023
10:00+17св118466 0.0 1010107
13:00+17ююв338970 0.0 1009246
16:00+18ю688334 0.0 1008213
19:00+17ю458569 0.0 1009113
22:00+16ю4592100 0.0 101061